GFSMW_850_dewp_096.txt.gz
Dewpoint
4 4 2 -2 -2 -2 -6 -7 -6 -9 -9 -5 6 7 9 9 9 10 8 7 8 9 9 10 10 12 11 11 12 11 10 10 10 10 10 10 10 10 10 9 10 9 9
2 1 4 4 2 0 -3 -3 -5 -7 -9 -8 -6 6 3 8 7 11 11 7 7 10 10 10 10 11 10 12 12 11 11 11 10 10 10 10 10 11 10 10 10 10 8
4 4 3 5 5 5 1 -2 -6 -7 -8 -7 -4 -0 5 9 8 8 9 10 8 8 10 11 11 10 10 10 11 11 11 11 11 10 10 10 10 10 10 9 10 10 7
4 4 5 6 6 7 5 1 -4 -7 -4 -3 -1 -1 -1 4 2 5 8 10 10 8 9 12 11 10 9 10 10 11 10 10 11 11 10 10 9 9 9 9 10 9 7
3 4 5 5 6 7 7 5 2 -5 0 -0 -0 -2 -1 -0 4 8 7 3 8 10 11 12 10 9 9 10 10 11 10 10 10 11 11 10 10 9 9 9 9 9 7
3 3 4 4 6 7 8 8 8 -1 2 5 2 1 -0 4 9 8 8 6 9 10 12 12 10 10 8 9 10 11 9 10 10 11 11 10 10 10 9 9 9 8 8
2 3 3 3 4 7 7 9 11 10 10 9 8 4 7 7 9 8 6 9 11 10 13 12 12 9 8 9 9 10 10 10 10 10 10 10 9 9 9 9 8 8 8
1 3 3 2 3 6 7 8 10 12 13 13 12 12 12 11 10 9 8 7 8 6 8 10 10 9 8 9 10 9 9 10 9 10 10 10 10 10 9 9 8 8 8
-0 1 3 3 3 4 6 7 9 11 12 12 12 12 13 12 10 9 10 10 8 5 6 8 7 8 9 9 9 9 9 9 9 10 10 9 10 10 9 8 8 5 6
-1 1 1 1 2 3 5 7 9 11 12 12 12 12 12 12 10 8 10 9 6 6 5 6 9 8 9 9 9 9 9 9 9 10 10 10 10 9 8 9 7 6 5
-1 -1 -0 1 2 3 4 6 8 10 11 12 9 10 11 10 9 8 9 8 7 6 8 9 8 9 9 9 9 9 9 9 9 10 10 10 10 9 9 9 7 6 5
-1 -1 -1 -0 2 2 3 4 7 8 10 11 10 8 6 8 6 10 10 9 7 8 8 8 8 8 9 10 9 9 9 9 9 9 9 10 9 9 9 8 7 6 6
-1 -1 -2 -1 -0 1 2 2 4 7 9 9 10 10 8 8 8 11 8 8 8 9 9 9 9 9 9 9 9 9 9 9 9 8 9 9 9 9 8 8 7 6 7
-2 -2 -2 -2 -1 -1 0 1 3 5 7 8 9 9 10 9 11 10 9 9 9 9 9 9 9 9 9 7 9 9 9 9 9 9 9 9 9 9 8 8 8 7 8
-3 -3 -2 -2 -2 -1 -1 1 1 2 4 6 8 9 9 9 10 10 9 9 9 8 8 7 7 7 6 7 8 8 8 9 9 9 9 9 9 9 9 8 7 8 8
-4 -3 -3 -3 -2 -2 -2 -1 1 2 3 4 5 6 8 8 8 10 9 9 10 9 8 8 7 6 6 8 8 8 9 9 8 9 9 9 9 9 9 8 8 8 8
-5 -4 -4 -3 -3 -3 -2 -2 -1 1 2 3 3 3 5 6 6 7 9 10 9 9 8 7 6 6 6 6 8 8 8 8 9 9 9 8 8 9 8 8 8 8 8
-5 -5 -5 -4 -3 -3 -2 -2 -1 -1 0 1 2 3 3 3 5 1 6 8 8 8 8 7 6 6 5 7 8 8 8 8 8 8 8 8 8 8 8 8 8 8 8
-5 -5 -5 -5 -4 -3 -3 -2 -2 -2 -1 -1 -0 0 2 2 1 2 1 2 5 6 7 6 6 6 6 7 8 7 7 7 7 7 7 7 7 7 7 7 7 7 7
-6 -6 -5 -5 -5 -5 -4 -3 -3 -3 -3 -3 -2 -1 -1 0 2 0 0 0 1 1 2 3 4 3 5 6 6 5 6 6 6 5 5 4 4 4 5 5 5 6 5
-6 -6 -6 -6 -6 -5 -5 -4 -4 -4 -4 -4 -3 -2 -2 -2 -2 -1 -0 -1 0 0 -0 0 -0 0 1 1 1 2 3 4 3 2 1 1 0 1 1 2 2 3 2
-7 -7 -6 -6 -6 -6 -5 -5 -5 -5 -4 -4 -4 -3 -3 -3 -3 -2 -3 -2 -1 -2 -2 -2 -1 -1 -1 -1 -1 -0 0 0 1 0 -1 -1 -1 -1 -1 0 -0 -0 -1
-7 -7 -7 -7 -7 -6 -6 -6 -6 -6 -5 -5 -4 -4 -4 -4 -4 -4 -3 -3 -3 -3 -4 -4 -4 -4 -4 -4 -3 -2 -2 -2 -1 -2 -3 -3 -2 -3 -3 -3 -3 -3 -5
-8 -7 -7 -7 -7 -7 -7 -7 -6 -6 -6 -5 -5 -5 -5 -5 -5 -5 -5 -5 -5 -5 -5 -5 -5 -5 -5 -5 -4 -4 -4 -4 -4 -4 -4 -4 -4 -4 -5 -5 -6 -6 -7
-8 -8 -8 -8 -8 -7 -7 -7 -7 -7 -7 -6 -6 -6 -6 -6 -6 -6 -6 -6 -6 -6 -6 -6 -6 -6 -6 -6 -6 -6 -5 -6 -5 -5 -5 -5 -5 -5 -6 -6 -7 -8 -15
-9 -8 -8 -8 -8 -8 -8 -8 -8 -8 -8 -8 -8 -9 -7 -7 -7 -7 -7 -7 -7 -7 -7 -7 -7 -7 -7 -7 -6 -6 -7 -7 -7 -6 -6 -7 -9 -12 -14 -19 -23 -26 -28

GFSMW_850_dewp_099.txt.gz
Dewpoint
3 2 1 1 2 2 2 -0 -4 -7 -7 -8 -9 -7 -3 -0 9 7 7 9 7 5 5 6 9 9 10 9 11 11 11 11 10 10 11 10 9 9 8 10 9 10 10
3 2 1 1 1 3 5 4 2 -2 -4 -5 -7 -8 -6 -4 10 9 8 10 9 8 7 7 9 9 10 10 11 12 11 11 10 11 10 10 10 8 8 9 9 9 10
4 3 3 3 4 4 5 5 5 2 -1 -5 8 10 10 12 13 8 6 9 9 10 9 10 9 9 9 10 12 11 11 11 10 11 10 10 10 10 10 9 9 9 10
3 3 3 3 5 5 6 6 7 6 1 -1 8 11 11 12 10 5 5 7 9 9 10 11 10 10 10 10 12 10 10 11 10 11 10 10 10 10 10 10 10 10 10
3 2 2 2 3 5 6 6 7 7 5 5 2 10 9 9 11 9 3 5 6 7 8 4 11 10 10 11 10 11 10 10 11 11 10 10 10 9 9 9 9 10 9
2 2 2 2 4 5 6 6 7 8 9 8 2 10 10 10 12 9 5 8 7 6 7 6 6 11 11 10 9 9 10 10 10 10 10 10 10 10 9 9 9 9 10
1 1 1 1 4 4 5 6 7 7 10 10 8 11 12 12 11 9 8 9 4 3 4 5 10 11 12 9 9 9 10 10 10 10 10 10 10 10 10 9 9 9 9
0 -0 0 -1 2 3 4 5 6 7 9 11 11 11 12 12 12 12 11 9 5 4 5 6 11 11 11 10 9 9 10 10 10 10 9 10 10 10 10 10 9 9 9
-0 -1 -1 -1 2 2 3 4 5 7 9 11 12 12 11 11 12 12 12 10 6 6 7 8 11 12 11 11 8 9 10 10 9 9 9 10 9 10 10 10 10 9 8
-1 -1 -1 -1 2 2 3 4 5 6 9 11 11 11 11 11 11 12 11 10 11 9 10 9 11 12 12 11 9 8 10 9 10 10 9 9 10 10 9 9 10 9 9
-1 -2 -1 -1 1 1 2 3 5 7 9 10 11 11 11 11 11 12 12 11 7 5 9 11 12 11 8 9 9 9 9 10 9 9 9 9 10 10 10 10 10 9 8
-1 -2 -1 -1 -0 0 2 3 4 5 6 10 10 10 11 11 11 11 10 9 5 5 10 9 8 8 8 8 9 9 9 9 9 9 9 9 9 10 9 10 9 9 8
-2 -2 -1 -1 -1 -1 0 1 2 4 6 9 10 10 10 10 10 8 8 8 8 7 9 9 9 8 8 8 9 10 9 9 9 9 9 9 9 9 9 9 9 9 8
-3 -3 -2 -2 -2 -2 -1 -0 1 3 4 6 8 9 10 10 10 10 9 9 8 8 10 8 8 8 8 9 9 9 9 9 9 9 9 8 8 8 9 9 9 8 8
-3 -4 -3 -3 -3 -2 -2 -0 1 2 2 4 6 7 8 8 9 10 10 10 8 9 9 8 9 9 9 9 9 9 9 9 9 9 9 9 9 9 9 9 8 8 7
-4 -5 -4 -4 -3 -3 -2 -1 -1 -1 1 2 3 4 6 7 8 9 8 9 10 10 8 9 9 8 8 7 8 8 8 9 9 8 8 9 8 9 9 8 8 8 7
-5 -5 -5 -5 -4 -3 -3 -2 -2 -1 -1 0 1 2 2 3 4 6 8 8 7 9 9 9 8 7 6 6 8 8 8 8 8 9 8 8 8 8 8 8 8 8 8
-6 -6 -5 -5 -4 -4 -3 -3 -2 -2 -2 -1 -1 -0 1 1 2 3 2 3 3 6 8 8 7 6 5 6 8 8 8 8 8 8 8 8 8 8 8 8 8 8 8
-6 -6 -6 -5 -5 -4 -4 -3 -3 -3 -3 -2 -2 -1 -1 -0 1 2 2 1 0 0 5 6 6 6 6 7 7 6 7 7 7 7 7 7 7 7 7 8 8 7 8
-6 -6 -6 -6 -5 -5 -5 -4 -4 -4 -4 -4 -3 -2 -1 -1 -1 -0 0 0 1 0 0 2 3 4 4 4 3 5 6 6 6 6 5 6 6 6 6 6 6 6 6
-6 -6 -6 -6 -7 -6 -5 -5 -5 -5 -5 -4 -4 -3 -3 -2 -2 -1 -1 -1 -0 0 0 0 0 0 1 0 1 2 3 4 4 3 2 2 2 3 2 3 3 3 2
-7 -7 -7 -7 -7 -7 -6 -6 -6 -6 -5 -5 -4 -4 -4 -4 -3 -3 -2 -2 -2 -2 -2 -2 -2 -1 -2 -1 -1 -1 0 -0 1 0 -1 -1 -0 -0 0 1 0 -0 -1
-7 -7 -7 -7 -7 -7 -7 -7 -6 -6 -6 -5 -5 -5 -5 -5 -4 -4 -4 -4 -4 -4 -4 -3 -4 -5 -4 -4 -4 -3 -2 -2 -2 -3 -3 -2 -2 -2 -2 -2 -2 -3 -4
-8 -8 -8 -8 -7 -7 -7 -8 -8 -7 -6 -6 -6 -6 -6 -6 -6 -6 -5 -6 -5 -5 -5 -5 -5 -6 -5 -5 -5 -4 -4 -4 -4 -5 -4 -4 -4 -3 -3 -4 -5 -5 -5
-8 -8 -8 -8 -8 -8 -8 -8 -8 -8 -8 -8 -7 -7 -7 -6 -6 -7 -7 -7 -7 -6 -6 -6 -6 -6 -6 -6 -6 -5 -5 -5 -5 -5 -5 -5 -5 -5 -6 -6 -6 -6 -10
-9 -9 -9 -9 -9 -9 -9 -9 -8 -8 -8 -9 -9 -9 -8 -8 -8 -7 -7 -7 -8 -7 -7 -7 -7 -7 -7 -7 -8 -9 -9 -7 -6 -6 -6 -6 -6 -6 -7 -8 -10 -18 -22

GFSMW_850_dewp_102.txt.gz
Dewpoint
3 2 3 4 4 5 5 5 1 1 1 2 3 8 11 8 -4 9 12 9 8 6 5 6 5 7 9 9 9 10 12 12 12 11 11 11 11 11 8 7 8 9 11
2 3 3 4 4 5 5 5 5 4 4 6 6 6 10 11 11 11 12 6 10 7 7 7 6 7 9 10 11 11 11 12 11 11 11 11 11 11 10 9 9 9 10
3 3 3 3 4 4 4 5 5 5 5 6 7 5 10 11 12 12 9 -2 10 9 8 8 7 9 10 11 12 11 12 11 11 11 11 10 10 10 10 9 8 9 7
3 3 2 3 3 3 4 5 6 6 6 7 7 8 7 10 10 11 5 4 8 11 9 9 9 9 10 11 11 12 11 11 11 11 11 11 10 10 10 9 7 8 8
2 2 2 2 2 3 4 5 6 6 7 7 7 7 8 10 10 11 12 13 11 8 10 8 5 9 8 9 10 11 11 10 11 11 11 11 10 10 10 10 9 9 9
2 1 1 1 2 2 3 5 6 6 7 7 8 8 9 10 11 11 12 12 13 10 8 8 9 9 6 3 6 8 11 10 9 10 11 11 10 10 10 10 9 9 10
1 1 1 1 1 2 2 4 6 6 7 7 8 9 9 9 12 11 12 12 13 10 9 7 8 8 7 3 4 6 11 10 9 10 10 10 10 10 10 10 10 9 9
1 0 -0 0 1 1 1 4 5 6 7 7 9 10 10 10 12 12 12 12 13 13 12 9 6 9 5 4 5 9 12 10 8 10 10 10 10 10 10 10 10 10 9
0 -0 -0 -0 1 1 2 3 5 5 6 7 9 11 11 12 12 11 11 11 12 12 11 9 9 5 8 6 8 10 11 9 9 10 10 10 10 10 10 10 10 10 9
-0 -1 -1 -0 0 -0 1 3 4 3 5 7 9 11 11 11 11 11 11 11 11 11 11 9 6 7 9 11 10 11 10 9 10 10 10 10 10 9 9 10 9 10 10
-1 -1 -1 -1 -0 -1 1 2 4 4 5 7 9 10 10 10 11 11 11 11 11 11 10 7 9 10 11 11 10 11 11 8 9 10 9 9 9 9 9 9 10 9 9
-1 -1 -1 -1 -1 -1 0 1 2 3 4 5 7 9 10 10 11 11 11 11 11 11 10 8 6 6 10 11 11 11 10 8 10 10 10 10 9 9 9 10 10 9 9
-2 -2 -2 -2 -2 -2 -1 1 1 2 3 4 6 8 9 10 10 10 10 11 10 10 8 6 4 4 10 10 9 9 9 10 10 9 9 9 9 10 9 9 9 9 9
-2 -2 -2 -2 -2 -3 -3 -1 1 0 1 1 4 6 8 9 10 10 10 10 9 6 7 6 4 7 8 9 10 9 9 9 9 9 9 9 9 9 9 9 9 9 9
-3 -3 -3 -3 -3 -3 -2 -2 -1 -1 -1 1 4 5 6 8 7 9 10 10 10 10 9 8 9 8 8 9 8 9 9 9 9 9 9 9 8 9 8 9 8 9 9
-3 -4 -4 -4 -4 -4 -3 -3 -2 -2 -1 -0 -0 1 3 5 6 7 9 9 9 9 10 10 8 8 8 8 9 9 9 8 8 9 9 9 8 8 9 8 9 9 8
-4 -5 -5 -5 -5 -4 -4 -4 -3 -3 -2 -1 -1 0 1 1 3 4 5 4 7 7 8 9 9 8 8 9 9 8 8 8 8 9 9 9 8 8 8 9 8 8 8
-6 -6 -6 -6 -5 -4 -4 -4 -4 -3 -3 -2 -2 -1 -0 1 1 1 2 2 2 4 4 6 8 9 8 7 8 8 8 8 8 8 8 8 8 8 8 8 8 8 8
-7 -7 -7 -7 -5 -5 -5 -4 -4 -4 -3 -3 -3 -3 -2 -1 -1 0 0 1 1 1 1 2 2 7 6 7 7 8 7 7 7 7 8 8 8 8 7 7 8 8 8
-7 -7 -7 -7 -6 -6 -5 -5 -5 -5 -4 -4 -4 -4 -3 -2 -2 -2 -2 -1 0 1 0 0 -2 2 3 4 6 5 6 6 5 5 6 6 6 6 6 5 6 7 7
-7 -7 -7 -7 -7 -6 -6 -6 -6 -5 -5 -5 -4 -4 -4 -4 -4 -3 -3 -3 -2 -1 -0 -0 -1 -1 0 0 1 2 3 3 2 2 3 3 3 4 4 4 5 5 5
-8 -8 -8 -8 -8 -8 -7 -7 -6 -6 -5 -5 -5 -5 -5 -4 -4 -4 -4 -4 -4 -3 -3 -3 -3 -3 -3 -3 -1 -0 0 -0 0 -1 -1 -0 0 1 2 2 2 2 1
-8 -8 -8 -8 -8 -8 -8 -8 -8 -7 -6 -6 -6 -6 -6 -5 -5 -5 -5 -5 -5 -5 -5 -5 -5 -5 -4 -4 -4 -3 -3 -2 -2 -2 -2 -2 -2 -1 -1 -1 -2 -1 -1
-9 -9 -8 -9 -9 -9 -9 -9 -8 -8 -8 -7 -7 -7 -6 -6 -6 -6 -6 -6 -6 -6 -6 -6 -6 -6 -6 -5 -5 -4 -4 -4 -4 -5 -5 -5 -3 -3 -3 -4 -4 -4 -4
-9 -10 -10 -10 -10 -10 -10 -9 -9 -8 -8 -9 -8 -8 -8 -9 -8 -7 -7 -7 -7 -6 -6 -7 -6 -6 -7 -7 -6 -6 -5 -5 -5 -5 -5 -5 -5 -5 -6 -6 -6 -6 -6
-10 -10 -11 -12 -12 -13 -16 -17 -14 -13 -10 -10 -11 -11 -9 -9 -9 -9 -9 -9 -8 -8 -7 -7 -8 -8 -9 -10 -11 -8 -6 -6 -6 -6 -6 -6 -6 -7 -7 -7 -7 -7 -7

GFSMW_850_dewp_108.txt.gz
Dewpoint
0 1 3 4 4 5 5 5 5 4 4 4 6 6 6 7 5 8 11 13 13 13 14 13 13 14 14 10 11 10 11 12 12 12 12 12 12 11 12 12 10 11 11
-0 2 2 3 4 4 4 4 3 2 3 4 5 5 5 5 6 5 9 11 10 12 12 14 13 13 14 12 10 7 10 12 11 11 11 11 11 11 12 11 11 12 10
0 1 2 2 3 3 4 4 4 3 4 5 5 6 6 5 5 2 5 10 12 10 12 13 13 13 11 10 12 12 9 9 12 11 11 11 10 10 10 11 11 10 10
1 1 2 2 2 3 3 4 4 3 4 4 5 5 6 6 5 7 7 4 11 11 10 9 11 13 11 12 10 12 12 11 11 11 11 10 10 10 10 10 11 10 10
1 1 1 1 2 2 3 3 2 2 3 4 5 6 6 6 6 6 5 7 8 11 10 11 10 12 11 10 4 12 12 12 11 12 12 11 11 11 10 10 10 10 10
2 1 0 1 1 2 2 2 2 3 3 4 5 6 6 7 7 7 7 5 6 7 11 8 10 12 12 11 10 7 9 12 10 8 10 10 10 11 10 10 10 9 9
1 0 0 1 1 1 1 1 1 2 2 3 4 5 6 6 6 7 7 7 5 8 10 9 9 12 12 11 10 9 12 10 8 4 2 4 10 11 10 10 10 10 10
0 0 0 1 1 1 1 1 1 1 2 2 4 5 5 5 6 7 8 8 7 8 7 8 10 10 10 12 12 11 11 7 5 4 4 11 7 11 11 10 10 11 10
-1 -1 -1 -0 0 0 0 0 0 1 1 2 3 5 5 5 6 8 8 9 8 6 11 11 11 11 10 10 12 11 10 8 4 5 2 9 10 11 10 10 10 10 10
-3 -2 -1 -1 -0 -0 -0 -0 -1 -0 1 1 2 3 5 6 7 9 10 11 9 10 10 10 11 11 10 10 11 10 10 8 9 9 10 10 11 11 10 10 11 10 10
-2 -2 -1 -1 -1 -1 -1 -1 -2 -1 0 1 1 3 4 6 7 8 10 11 11 10 10 11 11 12 11 11 11 11 12 11 10 10 9 9 11 11 10 10 10 10 10
-2 -2 -2 -2 -2 -2 -2 -2 -2 -1 -1 0 1 2 3 5 6 8 9 9 9 8 10 11 10 12 12 11 11 11 11 10 9 7 10 7 11 11 10 10 10 10 10
-2 -3 -2 -2 -2 -2 -3 -3 -3 -2 -1 -0 0 1 2 3 5 7 8 9 9 7 9 9 9 9 9 11 11 11 9 8 5 5 7 10 10 10 9 10 11 10 10
-3 -3 -3 -3 -3 -3 -3 -4 -4 -3 -2 -1 -1 -0 1 2 3 4 6 6 8 9 10 11 10 7 10 11 11 11 7 6 7 6 7 7 10 9 9 10 10 9 10
-3 -3 -3 -4 -4 -4 -4 -4 -4 -3 -3 -2 -2 -2 -0 1 2 2 3 5 6 7 8 10 10 10 10 10 10 10 9 7 6 6 6 10 9 9 10 10 10 9 9
-4 -4 -4 -4 -5 -5 -5 -5 -5 -4 -3 -3 -3 -2 -1 -0 0 0 1 2 4 6 4 7 10 9 10 10 10 9 9 10 7 6 8 9 9 9 10 10 9 9 9
-5 -5 -5 -5 -6 -6 -6 -6 -6 -5 -4 -4 -4 -3 -3 -2 -2 -1 -0 0 1 2 4 4 6 8 8 10 10 10 10 10 10 9 9 9 9 9 9 8 8 9 9
-5 -6 -6 -6 -6 -6 -6 -6 -5 -5 -5 -5 -5 -4 -4 -4 -3 -2 -2 -2 -2 -0 0 1 1 2 3 7 8 9 10 9 9 9 9 9 9 8 8 8 9 9 8
-6 -6 -7 -6 -7 -6 -6 -6 -6 -5 -5 -5 -5 -5 -5 -5 -5 -4 -4 -4 -3 -3 -2 -1 -0 1 0 1 2 5 7 8 8 8 8 8 8 8 8 8 8 8 7
-6 -6 -7 -7 -7 -7 -7 -7 -6 -6 -6 -5 -5 -5 -5 -5 -5 -5 -5 -5 -5 -4 -3 -3 -3 -2 -1 -0 -1 0 1 4 4 5 6 7 7 7 7 8 7 7 6
-6 -6 -7 -7 -7 -7 -7 -6 -7 -6 -6 -6 -6 -6 -5 -5 -5 -5 -5 -5 -5 -5 -4 -4 -3 -4 -4 -3 -2 -1 -0 -1 -0 -0 2 4 4 5 4 5 5 5 5
-7 -7 -7 -8 -8 -7 -7 -7 -7 -8 -7 -7 -7 -7 -7 -7 -6 -6 -6 -6 -5 -5 -5 -5 -5 -5 -4 -5 -4 -4 -3 -2 -2 -3 -3 -1 -1 0 0 1 2 2 3
-7 -7 -8 -9 -9 -9 -9 -9 -9 -9 -8 -7 -8 -8 -8 -8 -9 -8 -8 -8 -7 -7 -7 -6 -6 -6 -6 -6 -5 -5 -4 -4 -5 -5 -5 -4 -3 -3 -2 -3 -3 -2 -1
-8 -8 -9 -10 -10 -10 -10 -9 -9 -9 -9 -10 -8 -8 -9 -9 -10 -12 -13 -14 -13 -12 -13 -13 -13 -9 -7 -7 -7 -6 -6 -6 -6 -6 -6 -5 -4 -4 -5 -4 -4 -4 -3
-9 -9 -9 -11 -13 -15 -12 -11 -9 -10 -9 -9 -11 -9 -9 -9 -9 -9 -9 -11 -12 -19 -18 -17 -19 -21 -20 -11 -7 -7 -7 -6 -6 -6 -6 -6 -6 -6 -6 -6 -6 -6 -7
-10 -11 -13 -16 -18 -21 -20 -17 -15 -12 -12 -10 -9 -11 -10 -10 -10 -10 -9 -10 -10 -11 -17 -22 -24 -21 -21 -21 -21 -16 -10 -8 -7 -6 -7 -7 -7 -7 -8 -8 -8 -8 -8

GFSMW_850_dewp_111.txt.gz
Dewpoint
2 3 3 4 4 4 3 3 2 2 2 3 3 1 -1 -2 -3 -1 8 12 12 12 11 13 13 13 12 13 14 13 12 13 12 13 13 12 11 12 12 11 11 11 11
3 3 3 3 3 3 3 2 2 2 1 1 2 3 3 2 1 -2 1 3 8 11 13 12 12 13 13 11 11 13 11 14 12 13 13 12 13 11 11 10 11 11 11
2 3 3 3 3 3 3 3 2 1 0 0 1 2 3 4 4 4 3 0 4 10 10 11 12 12 13 13 11 13 12 13 13 11 11 12 11 10 10 10 9 11 11
2 2 2 2 2 2 2 2 1 1 2 2 3 4 5 5 5 5 5 4 3 3 7 7 11 11 11 11 10 11 11 7 6 11 11 10 9 9 9 10 10 10 11
1 1 1 1 1 0 0 0 0 1 2 3 4 5 5 6 6 6 6 6 5 4 5 6 10 12 10 9 9 10 10 7 7 5 6 11 10 10 8 10 10 10 10
0 1 1 1 0 -0 -1 -2 -1 -0 1 2 3 4 4 5 6 6 6 7 7 6 4 5 8 11 11 10 7 8 10 6 6 5 11 9 10 11 10 10 10 9 9
0 1 1 0 -0 -0 -1 -1 -1 -0 0 2 3 3 4 5 6 6 7 7 7 7 7 5 6 9 11 10 10 8 9 10 8 7 8 9 8 9 9 10 10 10 9
-0 -0 -0 0 -0 -0 -1 -1 -1 -0 0 2 2 3 3 4 6 6 6 6 7 8 9 7 5 7 8 6 6 8 8 10 9 9 7 8 8 6 8 7 10 11 10
-1 -1 -0 -0 -1 -1 -1 -1 -2 -1 0 1 2 2 3 3 5 6 6 6 7 8 9 9 6 7 6 2 7 10 8 10 10 8 7 8 6 5 9 9 9 9 10
-1 -1 -1 -1 -2 -2 -2 -2 -2 -1 -0 1 2 2 2 3 3 5 6 6 8 9 9 9 7 8 6 7 9 10 9 10 10 8 5 8 7 6 7 8 9 9 10
-2 -2 -2 -2 -2 -3 -3 -3 -2 -2 -1 -0 1 1 2 3 3 4 5 6 7 8 10 10 10 8 8 8 9 9 10 10 10 10 7 7 5 6 7 5 9 9 10
-3 -3 -3 -3 -3 -3 -3 -3 -3 -2 -1 -1 -0 0 1 1 2 3 4 6 7 8 9 10 9 9 8 8 9 8 10 9 11 10 9 8 8 9 8 8 9 8 9
-3 -3 -3 -4 -4 -4 -4 -4 -3 -3 -2 -2 -1 -1 -0 0 1 2 3 4 5 7 8 9 7 7 8 9 10 11 11 11 10 10 9 5 9 7 8 8 9 8 9
-4 -4 -4 -4 -4 -4 -4 -4 -4 -3 -3 -2 -2 -2 -1 -1 -1 1 1 3 4 5 7 8 9 7 9 10 10 10 10 11 11 9 8 6 6 5 9 9 8 8 9
-4 -4 -4 -5 -5 -5 -5 -5 -5 -4 -4 -3 -3 -3 -3 -3 -1 -1 0 1 2 3 4 5 6 8 9 8 7 9 10 10 10 10 7 7 7 5 9 10 9 9 8
-5 -5 -5 -6 -6 -6 -6 -6 -5 -5 -4 -4 -4 -4 -4 -4 -3 -2 -2 -0 0 0 1 2 5 6 7 9 8 7 10 10 10 8 8 9 10 8 9 8 9 9 9
-5 -6 -6 -6 -6 -6 -6 -6 -5 -5 -5 -4 -4 -5 -4 -4 -4 -4 -3 -3 -2 -2 -0 -0 1 3 5 7 7 9 10 10 9 9 9 8 10 9 9 9 9 9 8
-7 -6 -7 -7 -6 -6 -6 -5 -5 -5 -5 -5 -5 -5 -4 -4 -4 -4 -4 -4 -4 -4 -2 -2 -1 0 1 2 6 4 8 7 8 8 8 8 9 9 9 9 9 8 8
-6 -7 -6 -6 -6 -6 -6 -6 -6 -6 -6 -6 -5 -5 -4 -4 -4 -5 -5 -5 -5 -4 -4 -4 -3 -2 -2 -0 1 1 2 -1 4 4 7 8 8 8 8 8 8 8 8
-7 -7 -7 -7 -6 -6 -6 -7 -7 -7 -7 -7 -7 -6 -6 -6 -5 -5 -5 -5 -5 -5 -5 -5 -5 -4 -3 -2 -1 0 0 0 -1 -2 -0 2 5 7 8 8 7 7 7
-7 -7 -7 -7 -7 -7 -7 -7 -8 -7 -7 -8 -8 -8 -8 -8 -8 -8 -7 -7 -6 -5 -5 -5 -5 -6 -6 -5 -3 -2 -1 -1 -1 -2 -2 -2 -1 1 3 6 6 5 5
-7 -7 -8 -8 -8 -8 -8 -9 -8 -9 -8 -8 -9 -10 -11 -13 -13 -13 -12 -13 -14 -14 -9 -6 -6 -6 -6 -6 -6 -5 -4 -3 -3 -3 -4 -4 -4 -3 -0 1 2 2 2
-8 -9 -9 -10 -10 -10 -9 -9 -9 -9 -10 -9 -9 -9 -10 -11 -12 -15 -17 -22 -22 -18 -20 -22 -19 -12 -7 -6 -6 -6 -6 -5 -6 -6 -5 -4 -4 -4 -3 -3 -2 -1 -1
-9 -9 -12 -15 -13 -11 -10 -10 -9 -10 -11 -12 -12 -11 -11 -12 -11 -11 -12 -14 -16 -25 -25 -24 -21 -20 -21 -17 -10 -7 -7 -6 -6 -6 -6 -6 -5 -4 -4 -4 -4 -4 -3
-10 -12 -16 -19 -19 -16 -16 -15 -15 -13 -12 -12 -14 -13 -12 -11 -11 -11 -11 -10 -11 -13 -15 -14 -19 -17 -13 -11 -15 -16 -10 -7 -7 -6 -6 -6 -6 -6 -6 -6 -6 -6 -6
-13 -17 -20 -22 -21 -19 -17 -17 -18 -17 -15 -13 -13 -13 -12 -12 -11 -12 -11 -11 -11 -13 -18 -15 -13 -12 -13 -12 -14 -19 -21 -17 -11 -9 -8 -8 -8 -8 -9 -8 -8 -8 -7

GFSMW_850_dewp_114.txt.gz
Dewpoint
5 5 5 5 4 4 3 1 -2 -5 -4 -3 -3 -4 -4 -3 -3 -2 2 8 11 12 12 12 13 13 13 12 12 11 13 13 13 13 13 14 14 13 12 11 11 12 12
4 4 4 3 3 1 -0 -2 -3 -3 -2 -2 -1 -1 -1 -2 -1 -1 -2 -2 2 7 10 11 12 12 13 13 12 12 11 11 11 12 12 13 13 13 11 11 12 11 11
4 3 3 3 2 -0 -1 -2 -2 -2 -3 -3 -1 1 1 2 2 2 2 2 1 -0 3 7 9 10 12 12 12 11 11 11 10 11 13 12 12 12 11 11 10 10 10
3 3 2 2 1 0 -1 -2 -3 -3 -3 -2 -1 2 3 2 2 3 3 3 3 3 3 2 5 8 8 10 11 12 10 10 11 11 8 8 10 11 10 12 11 10 10
3 2 1 1 0 -1 -5 -4 -4 -8 -5 -2 -1 0 2 3 3 4 5 5 5 6 5 5 3 4 7 8 11 11 11 10 11 11 9 8 7 9 8 9 9 11 10
1 1 0 -0 -2 -3 -5 -3 -3 -6 -3 -1 0 1 2 3 3 4 5 6 6 7 7 6 6 5 4 6 9 12 12 11 9 10 10 9 8 10 7 9 7 8 8
1 0 -0 -1 -2 -3 -3 -3 -4 -3 -2 -1 0 1 2 2 3 4 5 6 6 7 7 8 8 7 5 4 8 11 11 11 10 8 7 8 9 7 5 10 9 7 8
0 -1 -1 -1 -2 -3 -3 -2 -2 -2 -2 -1 0 1 2 2 3 3 4 5 6 7 7 7 8 9 9 6 6 9 10 11 10 8 8 9 8 7 7 6 10 9 9
0 -1 -1 -1 -2 -3 -3 -2 -2 -2 -1 -1 0 1 2 2 3 3 3 4 5 6 6 7 7 9 9 8 6 8 8 10 9 4 5 9 8 7 6 8 8 8 9
-1 -1 -2 -2 -3 -3 -3 -3 -2 -2 -1 -1 -0 0 1 1 2 3 3 3 4 5 6 7 8 8 9 9 6 7 6 6 6 6 7 9 8 8 8 8 7 8 8
-3 -3 -3 -3 -3 -3 -3 -3 -2 -2 -1 -1 -1 -0 0 0 1 2 2 3 3 4 6 6 7 8 8 10 7 8 6 6 7 7 7 7 8 8 7 7 7 8 9
-3 -4 -4 -4 -4 -4 -3 -3 -3 -2 -2 -2 -2 -2 -1 -0 0 1 1 2 3 4 5 6 7 8 9 10 10 7 7 8 8 9 7 8 8 8 8 7 6 6 8
-4 -4 -4 -5 -5 -4 -4 -4 -4 -3 -3 -2 -2 -2 -2 -2 -1 -0 0 1 2 3 4 5 6 7 8 8 8 9 8 6 7 8 9 8 8 8 9 7 6 7 8
-4 -4 -5 -5 -5 -5 -5 -5 -4 -4 -4 -3 -3 -3 -3 -3 -3 -2 -1 -0 0 1 2 3 4 5 6 8 8 8 8 8 9 9 10 9 9 6 5 5 6 6 8
-5 -5 -6 -6 -6 -6 -5 -5 -4 -4 -4 -4 -4 -4 -4 -4 -3 -3 -3 -2 -1 -1 -0 1 2 4 4 6 8 8 7 5 6 10 11 10 9 6 8 8 7 8 9
-5 -6 -6 -6 -6 -6 -5 -5 -5 -5 -4 -5 -4 -4 -4 -4 -4 -4 -4 -3 -3 -2 -2 -1 -0 1 2 3 6 7 7 7 8 10 11 10 10 9 7 7 8 8 9
-6 -6 -6 -7 -6 -6 -6 -6 -5 -5 -5 -5 -5 -4 -4 -4 -3 -3 -4 -4 -4 -4 -4 -3 -3 -2 -1 1 3 4 7 8 8 9 9 9 8 7 7 7 8 10 9
-7 -7 -7 -7 -7 -7 -6 -6 -6 -5 -5 -5 -5 -5 -5 -4 -4 -3 -4 -4 -5 -5 -5 -5 -5 -4 -3 -1 0 1 3 4 6 5 6 8 9 9 9 9 9 8 9
-7 -7 -7 -7 -6 -7 -6 -6 -6 -6 -6 -7 -8 -8 -8 -8 -7 -6 -6 -5 -5 -5 -5 -5 -4 -5 -6 -4 -1 0 0 1 1 1 0 4 5 8 7 8 9 9 9
-7 -7 -7 -7 -7 -6 -7 -7 -7 -7 -8 -9 -11 -12 -13 -14 -12 -14 -15 -10 -7 -6 -6 -6 -6 -6 -5 -5 -4 -2 -1 -0 -1 0 0 0 0 3 4 5 6 7 8
-7 -7 -7 -7 -7 -7 -7 -9 -9 -8 -9 -8 -11 -12 -14 -16 -19 -20 -18 -18 -19 -20 -16 -10 -7 -6 -6 -6 -5 -4 -4 -3 -3 -3 -2 -1 -1 -0 0 0 2 4 4
-8 -8 -8 -8 -8 -8 -9 -9 -9 -9 -9 -10 -11 -13 -14 -14 -16 -18 -21 -24 -24 -24 -22 -21 -21 -19 -12 -7 -7 -6 -6 -5 -4 -5 -5 -4 -3 -1 -1 -1 -2 -0 -1
-8 -9 -11 -10 -10 -10 -10 -10 -10 -12 -12 -13 -14 -14 -14 -14 -16 -17 -17 -19 -22 -23 -21 -21 -18 -16 -19 -22 -14 -8 -7 -6 -6 -5 -5 -5 -4 -4 -3 -3 -3 -2 -2
-9 -12 -15 -13 -12 -12 -13 -12 -11 -12 -15 -16 -15 -14 -14 -13 -13 -14 -14 -15 -18 -18 -15 -14 -16 -15 -13 -16 -21 -20 -13 -9 -7 -6 -6 -6 -5 -5 -5 -4 -4 -4 -4
-12 -18 -19 -16 -17 -17 -18 -18 -18 -16 -16 -16 -13 -12 -12 -12 -12 -12 -11 -12 -15 -17 -12 -12 -12 -13 -13 -12 -13 -19 -21 -16 -11 -9 -8 -8 -8 -8 -7 -7 -6 -7 -6
-18 -21 -22 -20 -19 -17 -15 -15 -17 -17 -13 -13 -13 -13 -13 -14 -13 -13 -13 -13 -14 -17 -18 -15 -13 -14 -14 -14 -14 -17 -19 -22 -21 -21 -17 -11 -10 -10 -10 -9 -9 -8 -8

GFSMW_850_dewp_117.txt.gz
Dewpoint
5 6 5 5 5 4 3 2 1 -0 -3 -5 -6 -6 -7 -5 -4 -3 -3 -1 2 7 10 11 11 12 11 12 13 12 10 8 13 10 7 10 11 11 11 12 12 13 13
5 5 4 4 3 2 1 -1 -3 -4 -4 -5 -5 -6 -6 -5 -4 -4 -2 -1 -1 -1 -1 5 9 10 11 12 13 13 13 13 12 11 11 12 10 8 10 12 12 11 12
4 4 3 2 1 -0 -1 -2 -2 -3 -4 -5 -5 -4 -4 -2 -2 -1 -1 0 1 2 1 1 0 2 7 9 10 13 13 13 12 12 11 11 11 11 9 10 10 11 11
3 2 1 0 -1 -2 -2 -3 -5 -8 -12 -13 -14 -12 -11 -7 -4 -3 -2 -2 0 3 4 4 4 3 1 2 6 9 11 12 12 12 11 11 10 10 11 10 9 8 10
2 1 -0 -1 -2 -2 -2 -3 -3 -7 -7 -8 -9 -8 -6 -4 -2 -1 0 0 1 4 5 6 6 5 5 4 3 4 8 10 11 12 12 12 11 10 7 7 6 7 9
1 0 0 -1 -1 -3 -2 -3 -2 -4 -4 -4 -4 -3 -4 -2 -0 0 1 2 2 3 5 6 7 7 7 7 6 5 5 8 10 10 10 11 11 10 7 7 6 4 6
-0 -1 -1 -2 -2 -2 -2 -2 -2 -2 -2 -2 -2 -2 -1 0 1 2 2 3 3 3 4 6 6 7 7 7 8 7 5 7 10 11 10 10 9 10 9 8 8 7 8
-1 -0 -1 -2 -3 -3 -3 -2 -2 -2 -2 -2 -1 -0 0 1 1 2 3 3 3 3 4 5 6 6 6 7 8 9 8 6 10 11 10 10 9 9 9 8 9 9 9
0 -0 -0 -1 -2 -2 -3 -2 -2 -2 -2 -1 -1 -0 0 1 1 2 2 2 3 3 3 4 5 6 6 7 7 8 9 8 8 9 10 10 8 8 9 8 9 9 9
-1 -2 -2 -2 -1 -2 -2 -2 -2 -2 -2 -2 -1 -1 -1 -0 0 1 1 2 2 3 3 3 4 5 6 7 7 8 9 9 8 10 10 8 8 7 9 9 10 9 8
-3 -3 -3 -4 -4 -3 -3 -3 -3 -3 -2 -2 -2 -2 -2 -1 -1 -0 0 1 1 2 3 3 4 5 5 6 7 8 9 9 7 9 9 8 8 6 6 7 7 8 8
-3 -4 -4 -5 -5 -4 -4 -4 -3 -3 -3 -3 -3 -2 -2 -2 -2 -1 -1 0 1 1 1 2 3 4 5 6 7 8 9 9 8 8 8 6 8 8 7 6 6 8 8
-4 -5 -5 -5 -5 -5 -5 -4 -4 -4 -3 -3 -3 -3 -3 -3 -3 -3 -2 -1 -0 -0 0 1 2 3 4 5 6 7 9 10 10 8 8 7 7 8 9 9 9 8 8
-4 -5 -6 -5 -5 -5 -5 -4 -4 -4 -4 -4 -4 -3 -4 -4 -3 -3 -3 -2 -2 -1 -1 -1 -0 1 2 4 5 6 8 9 9 10 10 8 9 9 9 9 10 9 8
-5 -6 -6 -6 -6 -6 -6 -5 -5 -4 -4 -4 -4 -4 -3 -3 -3 -4 -4 -3 -3 -3 -3 -2 -2 -2 -1 -0 2 5 6 7 8 8 9 9 9 9 8 10 10 9 9
-5 -6 -7 -7 -7 -6 -6 -5 -5 -5 -4 -4 -4 -4 -4 -3 -4 -3 -3 -4 -4 -4 -3 -3 -3 -3 -3 -2 -0 2 2 3 6 7 7 6 6 6 9 9 9 7 7
-6 -6 -6 -6 -7 -7 -6 -6 -6 -5 -5 -5 -6 -7 -6 -6 -5 -5 -4 -4 -4 -4 -3 -3 -3 -4 -4 -3 -1 -0 -0 -0 1 3 4 6 7 7 9 8 8 8 7
-7 -6 -7 -6 -7 -6 -7 -6 -6 -6 -7 -7 -9 -11 -11 -12 -11 -8 -7 -6 -6 -5 -5 -4 -4 -4 -4 -3 -3 -2 -2 -2 -2 0 1 2 4 5 7 8 8 8 8
-7 -7 -7 -7 -7 -7 -7 -7 -7 -7 -8 -12 -14 -16 -18 -16 -15 -18 -19 -17 -14 -11 -9 -8 -6 -5 -4 -4 -3 -2 -2 -3 -3 -2 -0 1 1 1 5 5 8 8 8
-7 -7 -7 -7 -7 -7 -7 -7 -8 -9 -10 -12 -13 -15 -17 -20 -22 -23 -22 -21 -20 -20 -20 -21 -20 -16 -10 -7 -5 -5 -4 -3 -3 -3 -3 -3 -1 0 1 1 4 3 5
-8 -7 -7 -7 -7 -8 -9 -9 -9 -10 -10 -12 -14 -16 -17 -17 -19 -21 -22 -23 -22 -22 -22 -21 -22 -23 -22 -18 -11 -7 -6 -6 -6 -5 -5 -5 -4 -2 -1 -1 1 0 0
-8 -8 -8 -8 -8 -9 -9 -11 -12 -11 -13 -15 -16 -17 -18 -19 -21 -23 -24 -25 -25 -25 -23 -23 -23 -22 -24 -25 -22 -13 -8 -7 -6 -6 -6 -5 -4 -4 -3 -3 -3 -1 -1
-8 -9 -10 -9 -9 -9 -10 -11 -13 -14 -15 -17 -17 -16 -17 -18 -19 -21 -22 -24 -24 -23 -20 -22 -23 -22 -22 -23 -24 -24 -20 -11 -8 -8 -7 -6 -5 -5 -5 -5 -4 -4 -3
-12 -13 -11 -11 -13 -13 -13 -13 -16 -18 -18 -16 -15 -15 -16 -15 -15 -16 -17 -20 -20 -18 -13 -17 -20 -21 -21 -16 -18 -22 -23 -23 -21 -13 -9 -9 -8 -7 -7 -6 -6 -7 -7
-16 -17 -16 -16 -17 -17 -19 -19 -18 -17 -15 -16 -15 -14 -14 -14 -15 -15 -16 -18 -18 -18 -15 -14 -17 -17 -19 -15 -14 -16 -21 -21 -22 -23 -22 -21 -15 -10 -9 -9 -9 -8 -8
-20 -18 -17 -16 -16 -17 -17 -18 -18 -17 -16 -16 -16 -16 -16 -16 -17 -17 -16 -17 -17 -19 -18 -15 -15 -19 -18 -26 -27 -25 -24 -24 -23 -25 -23 -21 -20 -19 -15 -12 -11 -11 -10

GFSMW_850_dewp_120.txt.gz
Dewpoint
5 5 5 5 4 4 4 3 2 2 1 -0 -1 -2 -3 -4 -4 -4 -3 -2 -1 0 2 6 8 9 9 10 11 11 11 12 12 11 8 9 8 7 10 11 10 10 10
4 3 3 2 2 1 1 0 -1 -1 -2 -2 -3 -4 -5 -5 -4 -4 -4 -3 -2 -1 -0 0 -1 -0 3 7 9 11 13 13 13 11 12 10 9 6 6 8 7 10 10
3 2 1 -0 -1 -1 -1 -1 -1 -1 -1 -2 -2 -4 -4 -4 -4 -4 -3 -2 -1 -1 -1 -0 1 1 -0 -0 2 7 9 12 11 12 12 12 11 11 10 10 5 9 8
1 0 -1 -1 -2 -1 -1 -1 -1 -3 -1 -1 -2 -5 -7 -11 -13 -14 -13 -6 -2 0 1 2 3 3 3 3 2 2 4 8 11 11 11 13 11 11 11 11 10 8 6
-0 -1 -1 -1 -1 -1 -2 -2 -1 -0 -1 -1 -0 -2 -2 -7 -6 -6 -4 -5 -1 1 2 2 4 6 6 6 5 4 4 4 7 10 11 11 12 11 11 10 10 10 8
0 0 0 -0 -1 -1 -1 -1 -2 -2 -2 -2 -1 -1 -1 -3 -2 -2 -2 -2 -1 1 2 3 4 5 6 7 7 7 7 6 5 6 10 10 11 11 11 10 8 8 8
0 1 1 1 1 0 -1 -1 -1 -1 -1 -2 -1 -1 -0 -0 0 -0 -1 0 1 2 2 3 3 4 5 6 6 6 6 7 8 6 7 9 11 11 11 11 10 9 8
-0 0 0 1 1 1 -1 -2 -1 -2 -1 -1 -1 -1 -1 -0 -0 0 1 1 2 2 3 3 3 3 4 5 6 6 6 7 7 8 7 7 8 10 11 11 10 9 8
-1 -1 -1 -1 -1 -1 -1 -2 -1 -2 -2 -2 -2 -2 -2 -1 -1 -0 0 1 1 1 2 2 3 3 4 5 5 5 7 7 7 7 8 7 7 9 10 10 10 9 9
-2 -2 -3 -3 -3 -3 -2 -2 -2 -2 -2 -2 -2 -2 -2 -2 -1 -1 -1 -0 0 1 1 2 2 3 4 4 4 5 6 7 7 8 8 8 8 10 10 10 10 9 9
-3 -3 -4 -4 -4 -4 -4 -3 -3 -3 -3 -3 -3 -3 -3 -3 -2 -2 -2 -1 -1 -1 -0 0 0 1 2 3 3 4 5 7 8 8 8 8 8 9 10 10 9 9 9
-4 -4 -5 -5 -5 -5 -4 -4 -4 -3 -3 -3 -3 -3 -3 -3 -3 -3 -3 -2 -2 -2 -1 -1 -0 0 1 2 2 3 5 6 7 8 7 8 8 9 9 10 9 9 9
-4 -5 -5 -5 -6 -5 -5 -5 -4 -4 -4 -4 -3 -3 -3 -3 -3 -4 -3 -3 -3 -2 -2 -1 -1 -1 0 1 2 3 4 5 6 7 7 8 9 9 9 9 9 9 8
-5 -5 -6 -6 -6 -6 -5 -5 -4 -4 -4 -4 -4 -3 -3 -3 -4 -4 -4 -4 -4 -4 -3 -3 -3 -3 -1 -1 0 1 3 4 5 6 7 8 8 9 9 9 9 8 9
-5 -6 -6 -6 -6 -6 -6 -5 -5 -4 -4 -4 -4 -4 -4 -4 -4 -4 -4 -4 -4 -4 -4 -4 -3 -4 -3 -2 -1 -0 1 2 3 4 5 6 7 8 9 9 9 8 9
-6 -6 -6 -6 -7 -7 -6 -6 -5 -5 -5 -6 -7 -8 -8 -7 -6 -6 -6 -5 -5 -4 -4 -4 -3 -4 -4 -3 -2 -2 -1 -0 0 1 2 2 4 6 7 7 8 9 8
-6 -6 -6 -6 -7 -7 -7 -6 -6 -5 -5 -5 -7 -9 -14 -16 -16 -15 -14 -14 -13 -11 -9 -7 -5 -4 -4 -3 -3 -3 -3 -2 -2 -2 -1 -0 1 2 4 5 7 9 9
-7 -7 -7 -7 -7 -7 -7 -7 -7 -7 -8 -12 -17 -20 -19 -18 -19 -19 -19 -19 -19 -20 -20 -20 -17 -14 -10 -6 -5 -4 -3 -3 -3 -3 -3 -3 -2 -1 1 2 3 7 8
-7 -7 -7 -7 -7 -7 -7 -7 -8 -8 -12 -14 -16 -17 -19 -21 -22 -22 -22 -21 -21 -21 -21 -23 -24 -23 -20 -16 -12 -8 -6 -5 -5 -5 -4 -4 -3 -2 -1 -1 1 1 5
-7 -7 -7 -7 -7 -7 -7 -7 -9 -11 -13 -14 -16 -17 -20 -22 -24 -23 -23 -24 -26 -26 -27 -25 -23 -24 -23 -23 -22 -18 -12 -9 -7 -5 -6 -5 -5 -4 -2 -1 -0 0 1
-8 -8 -8 -7 -8 -8 -10 -10 -11 -12 -13 -15 -17 -19 -21 -23 -24 -25 -29 -29 -29 -29 -30 -31 -30 -30 -29 -24 -24 -24 -22 -13 -10 -8 -7 -6 -6 -5 -4 -4 -4 -4 -2
-8 -8 -8 -8 -8 -9 -10 -13 -12 -12 -14 -15 -17 -19 -21 -24 -25 -27 -29 -28 -29 -30 -32 -34 -34 -34 -32 -32 -29 -25 -23 -22 -20 -11 -9 -8 -8 -6 -5 -5 -5 -4 -4
-8 -8 -8 -9 -9 -9 -11 -14 -14 -14 -15 -16 -18 -19 -20 -21 -22 -26 -27 -28 -28 -28 -29 -31 -33 -33 -33 -34 -34 -33 -29 -25 -24 -22 -20 -14 -10 -9 -8 -7 -6 -5 -5
-9 -10 -10 -11 -11 -12 -14 -16 -14 -15 -17 -19 -19 -18 -20 -20 -20 -22 -22 -24 -21 -23 -25 -27 -27 -27 -30 -31 -32 -34 -33 -33 -30 -27 -25 -25 -23 -22 -16 -11 -9 -8 -8
-13 -12 -12 -15 -17 -17 -16 -15 -15 -17 -20 -21 -21 -20 -17 -17 -18 -20 -20 -20 -19 -17 -16 -16 -20 -20 -23 -22 -29 -30 -31 -32 -31 -31 -32 -32 -28 -27 -25 -23 -20 -14 -11
-16 -14 -15 -16 -17 -17 -17 -18 -19 -20 -21 -24 -22 -19 -18 -19 -20 -21 -21 -21 -20 -17 -16 -16 -16 -19 -16 -18 -28 -29 -30 -31 -32 -34 -32 -30 -28 -25 -22 -22 -21 -19 -18

GFSMW_850_dewp_123.txt.gz
Dewpoint
2 2 2 2 2 2 2 2 1 2 2 2 2 2 1 0 0 -1 -1 -1 -2 -2 -1 -0 2 4 7 9 9 10 11 12 13 13 11 8 9 9 7 6 4 9 8
1 1 0 0 0 -0 -0 -0 -1 -1 -0 0 -0 -0 -0 -0 -0 -0 -0 -0 -0 -1 -2 -2 -1 -1 -1 -0 2 7 9 11 12 12 12 12 11 10 8 8 6 7 7
0 0 -1 -1 -1 -1 -1 -1 -1 -2 -2 -2 -2 -1 -0 -0 -0 -1 -1 -1 0 1 -0 -0 -0 1 2 2 2 1 3 8 11 11 12 11 11 10 8 7 6 8 8
0 -0 -1 -1 -1 -2 -2 -2 -1 -1 -0 -1 -2 -4 -4 -4 -1 -1 -2 -1 -1 1 1 1 0 2 4 4 4 4 3 3 6 11 12 10 11 11 11 10 9 9 9
1 -0 -0 -0 -0 -0 -0 -1 -1 -2 -1 -0 0 0 -2 -5 -0 -0 -0 -1 0 1 1 2 2 2 4 6 6 6 6 5 4 5 10 11 11 10 11 11 10 9 8
-0 0 0 1 1 1 1 1 0 -0 -1 -1 0 1 -1 -1 -1 -1 -1 -1 -1 1 1 2 2 3 4 5 6 6 6 6 7 6 5 9 10 10 9 10 11 10 9
-0 -1 -1 -0 -0 -0 -1 -0 0 0 -1 -1 -2 -2 -1 -1 -1 -1 -1 -0 0 1 1 2 2 3 3 4 5 6 6 6 6 6 7 6 7 9 9 9 10 10 10
-2 -1 -1 -1 -1 -1 -1 -1 -2 -2 -2 -1 -1 -1 -2 -1 -1 -1 -1 -1 -0 0 0 1 1 2 3 3 4 4 5 5 6 6 6 7 7 7 8 9 10 10 10
-1 -2 -3 -3 -3 -3 -2 -2 -2 -2 -2 -2 -2 -2 -2 -2 -2 -2 -1 -1 -1 -0 -0 0 1 1 2 2 3 4 4 4 6 6 6 6 7 8 8 9 8 10 10
-2 -3 -4 -4 -4 -4 -3 -3 -3 -3 -3 -3 -3 -3 -3 -3 -2 -2 -2 -2 -1 -1 -1 -0 -0 0 1 1 2 2 3 4 5 6 7 7 8 8 8 10 9 8 9
-2 -4 -4 -5 -5 -5 -4 -4 -3 -3 -3 -3 -3 -3 -3 -3 -3 -3 -3 -2 -2 -1 -1 -1 -1 -1 -0 1 2 2 3 3 5 6 6 7 7 7 7 7 7 8 9
-4 -5 -5 -5 -5 -5 -4 -4 -4 -4 -4 -4 -3 -3 -3 -4 -4 -4 -4 -3 -3 -3 -2 -3 -3 -2 -2 -1 -0 1 1 3 4 5 5 6 7 8 8 8 8 8 9
-4 -5 -5 -5 -6 -6 -6 -5 -4 -4 -4 -4 -4 -3 -4 -4 -4 -4 -4 -4 -4 -3 -3 -3 -4 -4 -3 -3 -2 -1 0 1 2 2 4 5 6 7 8 8 9 8 8
-5 -5 -5 -6 -6 -6 -6 -5 -5 -5 -4 -4 -4 -5 -5 -5 -5 -4 -4 -4 -4 -4 -4 -4 -4 -4 -4 -3 -3 -2 -1 -0 0 1 2 2 4 5 7 8 8 8 8
-5 -5 -6 -6 -7 -7 -6 -5 -5 -6 -6 -6 -8 -10 -9 -8 -8 -9 -9 -8 -7 -6 -5 -4 -3 -4 -4 -4 -3 -3 -4 -3 -2 -1 -0 0 1 2 3 5 7 8 8
-6 -6 -6 -7 -7 -7 -6 -6 -5 -5 -6 -6 -7 -9 -11 -16 -17 -18 -18 -19 -18 -18 -17 -15 -10 -6 -6 -6 -4 -4 -4 -4 -3 -3 -2 -1 -0 1 1 2 3 5 6
-6 -6 -6 -7 -7 -7 -7 -7 -6 -6 -9 -16 -19 -19 -19 -20 -20 -20 -20 -20 -21 -22 -23 -22 -21 -20 -15 -10 -7 -6 -5 -5 -5 -5 -4 -3 -2 -1 -0 1 1 1 2
-6 -7 -7 -7 -7 -7 -7 -7 -7 -9 -13 -16 -18 -20 -21 -21 -21 -21 -23 -25 -26 -26 -25 -25 -24 -23 -23 -24 -19 -14 -10 -8 -7 -6 -5 -5 -4 -3 -2 -1 -0 -0 1
-6 -7 -7 -7 -7 -7 -7 -7 -8 -13 -15 -17 -19 -22 -24 -24 -25 -26 -28 -29 -31 -32 -33 -31 -32 -30 -31 -29 -27 -25 -23 -18 -11 -9 -7 -6 -5 -5 -4 -3 -2 -2 -1
-6 -7 -7 -7 -7 -7 -7 -9 -12 -15 -17 -19 -20 -22 -24 -25 -27 -28 -29 -31 -33 -33 -33 -34 -34 -34 -32 -32 -31 -29 -27 -26 -24 -18 -12 -8 -7 -6 -5 -5 -5 -4 -4
-7 -7 -7 -7 -8 -10 -10 -11 -14 -16 -17 -18 -19 -20 -23 -26 -28 -30 -31 -33 -34 -34 -35 -35 -35 -35 -36 -35 -35 -34 -33 -29 -27 -25 -23 -20 -12 -9 -7 -6 -6 -6 -5
-8 -8 -8 -8 -8 -10 -12 -14 -17 -17 -17 -18 -19 -21 -24 -26 -29 -32 -33 -32 -33 -34 -34 -34 -35 -36 -36 -37 -36 -35 -35 -33 -32 -28 -26 -24 -24 -22 -16 -9 -8 -7 -6
-8 -8 -8 -8 -9 -10 -13 -16 -16 -15 -16 -17 -19 -21 -23 -26 -29 -31 -30 -26 -25 -27 -28 -24 -25 -26 -32 -34 -34 -35 -35 -35 -35 -33 -32 -31 -30 -28 -26 -24 -22 -13 -10
-8 -8 -8 -9 -9 -11 -15 -17 -16 -17 -17 -19 -20 -21 -23 -25 -27 -22 -17 -14 -14 -14 -15 -15 -15 -16 -21 -26 -30 -32 -33 -34 -35 -35 -35 -35 -35 -34 -31 -29 -27 -24 -21
-8 -10 -10 -11 -13 -15 -16 -16 -16 -17 -19 -21 -22 -22 -23 -24 -23 -21 -15 -15 -15 -15 -15 -16 -16 -16 -17 -18 -28 -31 -32 -33 -34 -35 -36 -36 -36 -36 -35 -33 -30 -27 -24
-11 -11 -13 -18 -18 -17 -17 -17 -18 -19 -22 -24 -24 -24 -25 -24 -23 -22 -23 -25 -23 -16 -16 -16 -16 -17 -17 -21 -30 -31 -31 -32 -32 -34 -32 -32 -31 -31 -30 -31 -31 -30 -26

GFSMW_850_dewp_129.txt.gz
Dewpoint
2 2 2 2 2 2 1 1 -0 0 0 1 1 3 3 4 4 4 4 3 3 3 3 4 4 3 2 4 6 8 9 10 11 11 12 11 12 11 13 12 10 11 8
2 2 1 2 2 2 2 1 1 -0 -1 -1 -0 -1 1 3 1 1 2 1 0 -1 -1 -1 -0 -1 -0 -0 0 1 2 4 8 9 10 11 10 11 11 12 10 9 7
1 1 2 2 2 2 2 1 1 1 1 -1 1 1 1 1 1 1 -1 -2 -0 -3 -4 -3 -1 -1 -1 -0 1 2 3 3 2 6 9 10 10 9 10 10 9 11 8
1 1 1 1 1 1 1 1 1 1 1 0 1 1 1 2 2 1 1 1 -2 -1 -3 -3 -2 -1 -0 -0 -1 1 3 4 4 5 7 8 9 10 11 10 10 8 10
1 1 1 1 1 1 1 1 1 1 -0 0 -0 -0 -0 -0 0 1 1 1 1 -1 -2 -2 -2 -2 0 1 0 2 3 4 5 5 6 6 7 8 9 10 10 10 11
1 1 1 1 1 0 0 0 0 -0 -0 -1 -1 -1 -1 -1 -1 -1 -2 -1 -1 -1 -0 -1 -2 -2 -1 0 1 2 2 3 4 5 5 5 6 7 8 8 9 9 9
1 1 1 0 -0 -1 -1 -1 -1 -1 -1 -2 -2 -2 -3 -2 -2 -2 -2 -2 -1 -1 -1 -0 -0 -1 -0 0 1 1 2 2 3 3 5 5 5 6 6 6 7 8 9
1 1 0 -0 -1 -2 -2 -2 -2 -2 -2 -2 -3 -2 -3 -3 -4 -3 -2 -2 -2 -2 -1 -1 -0 -0 -0 0 1 1 1 1 2 2 3 3 4 5 5 6 6 7 8
1 1 0 -1 -2 -2 -3 -3 -3 -2 -3 -3 -3 -3 -3 -3 -4 -4 -3 -4 -2 -3 -2 -2 -1 -0 -1 -0 0 0 0 1 1 1 2 2 3 3 4 5 5 6 7
1 0 -1 -2 -2 -2 -3 -3 -3 -3 -4 -3 -3 -3 -3 -4 -4 -4 -4 -4 -3 -3 -3 -2 -2 -3 -2 -1 -1 -0 -0 -0 -0 1 1 0 1 2 3 4 5 6 6
1 0 -1 -3 -3 -3 -3 -4 -4 -4 -3 -3 -3 -3 -4 -4 -4 -3 -3 -4 -3 -3 -3 -3 -3 -4 -3 -3 -2 -2 -2 -2 -1 -1 -1 -1 0 1 2 4 4 5 6
0 -1 -2 -3 -3 -3 -3 -3 -4 -4 -4 -4 -4 -4 -4 -5 -4 -4 -4 -4 -4 -4 -4 -5 -6 -6 -4 -4 -4 -4 -3 -3 -3 -3 -2 -1 -0 0 1 2 3 4 6
0 -1 -3 -4 -4 -4 -4 -4 -4 -4 -4 -4 -4 -4 -5 -5 -6 -6 -6 -6 -6 -6 -6 -6 -6 -7 -6 -6 -6 -5 -5 -5 -4 -4 -4 -3 -2 -1 -0 1 1 2 3
-1 -2 -3 -4 -4 -4 -4 -4 -4 -4 -4 -4 -5 -5 -6 -7 -9 -8 -7 -7 -7 -7 -7 -6 -6 -7 -8 -6 -5 -6 -6 -5 -5 -5 -5 -4 -3 -3 -2 -1 -0 0 1
-1 -2 -3 -4 -4 -4 -4 -4 -4 -4 -4 -5 -5 -7 -8 -9 -9 -8 -8 -8 -8 -8 -8 -8 -8 -9 -14 -11 -9 -7 -7 -8 -8 -7 -6 -5 -4 -3 -4 -3 -2 -1 -1
-2 -3 -4 -4 -5 -5 -4 -4 -5 -6 -6 -7 -8 -8 -9 -12 -14 -12 -10 -9 -9 -9 -9 -9 -9 -14 -20 -24 -20 -10 -11 -13 -14 -16 -14 -12 -8 -5 -4 -4 -3 -3 -3
-2 -3 -4 -4 -5 -5 -4 -4 -5 -7 -8 -9 -9 -13 -18 -22 -24 -19 -15 -13 -12 -11 -12 -11 -10 -20 -34 -34 -30 -17 -13 -13 -16 -23 -25 -24 -23 -16 -8 -6 -5 -4 -4
-2 -3 -3 -4 -4 -5 -5 -5 -6 -7 -8 -10 -16 -18 -19 -20 -14 -20 -23 -16 -14 -14 -15 -18 -16 -19 -36 -38 -35 -14 -15 -19 -21 -23 -30 -29 -29 -29 -25 -16 -9 -6 -5
-2 -3 -4 -5 -5 -6 -6 -6 -7 -8 -9 -17 -26 -28 -29 -26 -22 -22 -23 -17 -13 -12 -12 -13 -21 -22 -31 -37 -37 -28 -11 -20 -18 -22 -31 -35 -33 -32 -33 -29 -26 -20 -11
-3 -4 -5 -6 -6 -6 -6 -6 -8 -8 -11 -11 -15 -19 -28 -28 -25 -24 -21 -18 -12 -12 -11 -11 -15 -22 -32 -37 -37 -37 -27 -15 -16 -20 -25 -35 -35 -35 -35 -33 -31 -30 -24
-4 -5 -6 -6 -6 -6 -7 -8 -8 -16 -13 -21 -22 -21 -16 -23 -16 -16 -15 -12 -11 -11 -11 -11 -12 -19 -28 -35 -37 -38 -37 -22 -17 -23 -30 -33 -36 -35 -36 -35 -34 -28 -28
-6 -6 -6 -7 -7 -7 -9 -12 -16 -15 -12 -16 -25 -26 -20 -13 -11 -11 -11 -11 -11 -11 -11 -11 -11 -12 -19 -31 -31 -33 -35 -32 -19 -17 -21 -23 -30 -30 -32 -32 -33 -36 -34
-7 -7 -7 -6 -7 -8 -9 -9 -13 -17 -21 -24 -25 -25 -22 -16 -11 -11 -11 -10 -11 -11 -11 -11 -12 -13 -14 -19 -21 -18 -19 -20 -15 -15 -15 -16 -17 -23 -25 -26 -30 -33 -31
-6 -6 -6 -7 -8 -9 -10 -9 -9 -10 -10 -10 -11 -12 -12 -12 -12 -12 -12 -13 -12 -12 -12 -12 -13 -14 -15 -16 -16 -16 -16 -18 -15 -15 -15 -15 -15 -15 -16 -17 -17 -18 -17
-6 -7 -7 -8 -9 -10 -11 -11 -12 -13 -13 -13 -13 -13 -13 -13 -15 -28 -16 -13 -26 -20 -14 -14 -14 -15 -16 -16 -16 -16 -16 -16 -15 -15 -15 -15 -16 -16 -17 -17 -17 -17 -17
-7 -7 -7 -8 -10 -11 -11 -13 -13 -13 -14 -14 -14 -14 -14 -15 -15 -14 -14 -17 -20 -20 -22 -21 -17 -16 -16 -16 -16 -16 -16 -17 -15 -14 -15 -15 -16 -17 -17 -17 -17 -18 -18

GFSMW_850_dewp_132.txt.gz
Dewpoint
2 2 2 2 2 3 2 2 2 1 -0 1 1 0 2 3 2 2 3 3 2 2 2 2 1 3 4 3 0 -0 -1 -1 2 7 7 4 5 6 10 10 9 10 10
2 2 2 3 2 2 2 2 2 1 -0 -0 1 2 2 3 2 2 1 -0 -1 -2 -3 -3 -3 -2 -1 -1 -1 -1 -2 -2 1 4 7 7 4 6 9 10 9 9 9
1 1 2 2 2 2 2 1 1 1 0 -0 0 -0 1 2 2 2 2 2 -0 -2 -4 -3 -4 -3 -2 -3 -3 -2 -2 -3 -3 1 6 7 8 7 5 7 9 10 11
1 1 1 1 1 1 1 1 1 1 0 0 0 0 1 1 1 2 1 2 2 1 -0 -1 -2 -3 -2 -2 -2 -2 -1 0 0 1 5 6 6 7 7 6 5 7 9
1 1 1 1 1 1 1 1 0 0 -0 -1 -1 -1 -1 -0 -0 -0 -1 -1 0 1 1 1 1 -0 -1 -1 -1 -2 -1 0 2 2 3 4 5 5 7 7 7 7 9
1 1 1 1 1 0 0 -1 -1 -1 -1 -1 -1 -2 -3 -2 -2 -2 -2 -1 -1 -1 -1 -0 0 0 0 -0 -0 -1 -0 0 1 2 2 3 4 5 5 5 6 7 6
1 1 1 0 -0 -0 -3 -2 -1 -1 -2 -3 -2 -2 -2 -2 -2 -2 -2 -2 -2 -2 -2 -1 -1 0 0 -0 -0 -0 0 1 1 1 1 2 3 3 3 4 5 5 6
2 1 1 -0 -1 -1 -4 -4 -2 -2 -3 -3 -2 -2 -2 -2 -3 -3 -3 -3 -3 -4 -3 -3 -2 -2 -1 -1 -1 -1 -1 0 0 1 1 1 2 2 2 2 3 4 5
2 1 1 -0 -2 -2 -5 -5 -3 -3 -3 -3 -2 -3 -3 -3 -3 -4 -3 -4 -4 -4 -4 -4 -4 -3 -2 -2 -1 -2 -1 -0 1 1 1 1 1 2 2 2 2 3 2
2 1 0 -1 -2 -2 -4 -5 -4 -3 -3 -3 -2 -3 -3 -3 -4 -3 -3 -4 -3 -3 -3 -4 -4 -3 -3 -2 -2 -3 -2 -2 -1 -1 -1 -0 0 1 1 2 2 2 2
1 1 -0 -1 -2 -2 -3 -5 -3 -3 -3 -3 -3 -3 -3 -3 -4 -4 -4 -4 -4 -4 -4 -5 -5 -4 -3 -3 -5 -5 -5 -4 -4 -3 -2 -2 -1 -1 -0 0 0 1 2
1 1 -0 -2 -2 -2 -3 -4 -3 -3 -3 -3 -3 -4 -4 -4 -5 -6 -6 -6 -5 -5 -6 -6 -6 -6 -4 -4 -5 -5 -5 -5 -5 -5 -4 -3 -3 -3 -2 -1 -1 0 1
1 0 -1 -2 -3 -3 -3 -3 -3 -3 -3 -4 -4 -5 -5 -7 -7 -6 -6 -7 -7 -7 -6 -7 -8 -11 -8 -4 -5 -6 -6 -6 -6 -6 -6 -5 -4 -4 -4 -3 -2 -1 -0
1 0 -2 -3 -3 -3 -3 -3 -4 -3 -4 -4 -4 -5 -6 -7 -7 -7 -8 -8 -8 -10 -8 -9 -11 -15 -15 -8 -6 -7 -7 -8 -8 -7 -8 -7 -5 -5 -6 -5 -3 -3 -3
1 -0 -2 -3 -3 -4 -3 -3 -3 -4 -4 -4 -5 -6 -7 -8 -9 -9 -8 -9 -12 -12 -10 -10 -18 -22 -25 -19 -9 -8 -10 -12 -19 -17 -14 -18 -10 -6 -7 -6 -5 -4 -4
0 -1 -2 -3 -4 -4 -4 -4 -4 -5 -6 -6 -7 -7 -10 -11 -15 -11 -10 -12 -14 -19 -17 -11 -19 -30 -29 -19 -11 -9 -9 -14 -24 -29 -25 -28 -28 -19 -9 -7 -6 -6 -5
-0 -1 -3 -4 -4 -4 -4 -4 -5 -6 -7 -8 -8 -13 -16 -20 -22 -20 -18 -18 -20 -22 -24 -19 -19 -30 -33 -20 -12 -10 -14 -16 -19 -31 -33 -33 -34 -33 -27 -20 -11 -8 -6
-1 -2 -3 -4 -4 -4 -4 -5 -6 -7 -8 -10 -12 -14 -17 -16 -18 -23 -18 -15 -19 -22 -24 -25 -25 -30 -32 -37 -22 -13 -13 -12 -18 -24 -33 -33 -35 -36 -36 -34 -28 -23 -15
-1 -3 -3 -4 -4 -4 -5 -5 -6 -8 -9 -14 -22 -26 -27 -24 -23 -23 -18 -15 -14 -12 -15 -19 -24 -30 -29 -36 -37 -25 -19 -17 -18 -23 -26 -23 -22 -20 -35 -37 -36 -33 -29
-2 -3 -3 -4 -5 -5 -5 -6 -8 -8 -9 -15 -20 -23 -26 -25 -24 -19 -19 -15 -12 -11 -11 -13 -18 -25 -30 -28 -37 -36 -28 -23 -24 -26 -24 -16 -15 -14 -21 -30 -31 -34 -28
-2 -3 -4 -4 -5 -5 -6 -7 -8 -10 -15 -13 -12 -16 -21 -16 -15 -16 -14 -13 -10 -11 -11 -11 -12 -20 -29 -29 -27 -31 -30 -21 -18 -21 -21 -15 -14 -14 -14 -20 -23 -22 -26
-3 -3 -4 -5 -6 -6 -6 -7 -11 -11 -13 -23 -26 -22 -16 -14 -13 -11 -10 -11 -11 -11 -11 -11 -12 -17 -25 -26 -20 -15 -16 -16 -14 -14 -15 -14 -14 -15 -15 -16 -18 -28 -30
-4 -4 -5 -6 -6 -7 -7 -10 -14 -16 -19 -25 -27 -23 -17 -13 -13 -12 -11 -11 -12 -11 -12 -13 -13 -18 -26 -25 -23 -18 -16 -15 -14 -14 -15 -15 -15 -16 -19 -15 -16 -23 -25
-5 -6 -6 -6 -6 -7 -8 -9 -12 -17 -19 -16 -13 -11 -11 -11 -12 -13 -21 -21 -16 -15 -13 -13 -18 -18 -22 -20 -19 -17 -18 -15 -15 -15 -15 -16 -17 -16 -17 -18 -18 -19 -20
-6 -6 -6 -7 -8 -9 -9 -9 -9 -10 -10 -11 -12 -14 -14 -19 -24 -23 -27 -29 -31 -30 -27 -20 -17 -20 -19 -16 -16 -15 -15 -15 -15 -16 -16 -17 -17 -17 -17 -18 -18 -17 -18
-6 -6 -6 -7 -9 -10 -10 -11 -12 -12 -12 -13 -13 -13 -14 -14 -14 -15 -15 -15 -16 -16 -19 -24 -25 -17 -16 -16 -16 -15 -15 -15 -15 -16 -17 -17 -18 -18 -18 -19 -19 -19 -19

GFSMW_850_dewp_135.txt.gz
Dewpoint
2 1 2 2 2 2 2 1 1 0 -0 -0 -0 0 2 2 2 1 1 -1 -1 -1 -1 -1 -2 -1 0 -0 -0 -1 -1 -2 -2 -3 -4 -7 -9 -4 1 7 6 5 8
2 2 2 2 2 1 2 1 1 0 0 -0 -0 1 2 2 2 2 1 -0 -1 -3 -4 -5 -5 -5 -5 -5 -5 -5 -5 -5 -3 -2 -2 -1 -6 -0 4 9 8 10 8
2 2 2 2 1 1 0 0 -0 -2 -1 -1 -0 0 1 2 2 0 1 1 0 -0 -0 -0 -1 -3 -3 -4 -3 -4 -4 -3 -1 0 3 6 6 3 -6 -4 -0 4 6
1 2 2 1 1 1 0 0 -1 -4 -5 -4 -3 -2 -1 -0 -0 -0 -0 -0 0 0 -0 -0 0 1 1 0 -1 -1 -2 -2 -0 2 4 4 4 5 4 1 -2 -2 2
1 2 1 1 1 1 0 0 -1 -4 -8 -9 -7 -5 -4 -4 -5 -4 -4 -3 -1 -1 -1 -1 -1 -0 0 1 0 -0 -0 0 1 2 2 2 3 4 4 5 4 0 1
1 1 1 1 1 -0 -1 -1 -2 -5 -7 -7 -7 -7 -6 -5 -4 -4 -3 -3 -2 -2 -2 -2 -1 -1 -0 0 0 0 0 -0 0 1 1 1 2 2 3 3 4 3 -4
1 1 1 1 0 -0 -3 -2 -3 -5 -6 -6 -6 -5 -4 -4 -3 -3 -2 -2 -2 -2 -3 -2 -2 -2 -2 -1 -1 -1 -1 -1 -1 -0 -0 0 1 1 1 2 2 3 3
1 1 1 0 -1 -1 -5 -4 -5 -6 -5 -5 -4 -3 -3 -3 -3 -3 -2 -3 -3 -3 -4 -4 -4 -3 -3 -3 -3 -2 -1 -1 -1 -0 -0 0 0 0 1 1 1 2 2
1 1 0 -0 -1 -2 -6 -6 -6 -6 -5 -3 -3 -3 -2 -3 -3 -3 -3 -4 -4 -3 -4 -4 -4 -4 -4 -4 -3 -4 -3 -2 -2 -2 -2 -1 -0 0 1 1 1 1 -0
1 1 1 -0 -2 -3 -6 -7 -6 -5 -4 -3 -3 -3 -3 -3 -3 -3 -4 -3 -3 -4 -4 -4 -4 -4 -4 -4 -5 -5 -5 -4 -4 -4 -3 -3 -2 -2 -1 -0 -0 -1 -2
2 1 1 -1 -2 -3 -4 -6 -5 -4 -3 -3 -3 -3 -3 -4 -6 -6 -5 -5 -5 -5 -5 -5 -6 -5 -4 -5 -5 -5 -5 -5 -5 -5 -4 -4 -3 -3 -3 -2 -2 -1 -1
2 1 -0 -1 -2 -2 -3 -5 -4 -3 -3 -3 -4 -4 -5 -5 -6 -7 -7 -7 -7 -6 -7 -8 -9 -9 -5 -5 -6 -6 -5 -5 -6 -6 -5 -5 -4 -4 -4 -4 -3 -2 -2
1 1 -0 -1 -2 -2 -3 -4 -4 -3 -3 -4 -4 -5 -6 -7 -8 -7 -8 -9 -9 -8 -9 -12 -18 -18 -7 -6 -7 -8 -9 -10 -7 -8 -12 -6 -6 -5 -6 -5 -4 -4 -3
1 1 -0 -2 -3 -3 -3 -4 -4 -3 -4 -4 -4 -5 -6 -8 -9 -9 -11 -12 -12 -11 -14 -16 -25 -27 -16 -11 -11 -11 -15 -23 -15 -14 -19 -13 -7 -6 -6 -7 -6 -5 -4
1 0 -1 -3 -3 -3 -4 -4 -4 -4 -4 -4 -5 -6 -8 -10 -11 -12 -15 -16 -16 -14 -16 -21 -32 -31 -21 -12 -11 -11 -18 -28 -27 -25 -29 -26 -19 -11 -7 -7 -7 -7 -6
1 0 -1 -3 -3 -3 -4 -4 -4 -4 -4 -5 -6 -7 -10 -13 -16 -18 -19 -20 -21 -22 -19 -28 -34 -33 -20 -13 -14 -16 -22 -25 -32 -32 -31 -30 -29 -26 -23 -13 -9 -7 -8
1 0 -2 -3 -3 -3 -4 -4 -4 -5 -6 -7 -8 -11 -15 -20 -22 -22 -21 -21 -23 -26 -28 -30 -33 -35 -24 -12 -16 -17 -19 -23 -25 -27 -28 -28 -29 -32 -30 -23 -21 -18 -11
1 -1 -2 -3 -4 -4 -4 -4 -5 -7 -7 -8 -10 -14 -20 -20 -22 -22 -19 -19 -21 -24 -30 -32 -33 -33 -33 -22 -14 -17 -20 -22 -26 -25 -20 -25 -22 -22 -31 -31 -27 -26 -24
0 -1 -2 -3 -4 -4 -4 -4 -6 -7 -7 -10 -14 -19 -21 -24 -25 -23 -19 -15 -14 -16 -21 -25 -30 -31 -22 -28 -26 -22 -24 -26 -26 -23 -17 -18 -18 -14 -33 -36 -35 -32 -29
0 -1 -3 -3 -3 -4 -4 -5 -6 -7 -8 -16 -23 -25 -27 -27 -25 -23 -16 -13 -11 -12 -13 -17 -24 -30 -25 -15 -21 -26 -25 -23 -23 -23 -19 -14 -14 -14 -18 -33 -35 -35 -31
-1 -2 -3 -3 -4 -3 -5 -5 -6 -7 -10 -18 -18 -23 -22 -21 -20 -16 -13 -11 -11 -11 -12 -14 -19 -28 -30 -18 -16 -22 -23 -19 -18 -18 -17 -14 -15 -14 -15 -26 -29 -30 -31
-2 -3 -3 -3 -3 -4 -4 -6 -8 -8 -12 -14 -17 -19 -17 -15 -13 -12 -10 -11 -11 -11 -12 -15 -22 -30 -31 -31 -24 -17 -16 -16 -16 -16 -15 -15 -15 -17 -15 -19 -27 -30 -33
-2 -3 -3 -3 -4 -4 -5 -6 -7 -12 -17 -21 -21 -16 -13 -13 -11 -11 -11 -11 -11 -12 -14 -20 -24 -27 -26 -23 -20 -17 -15 -15 -15 -16 -16 -16 -16 -20 -22 -18 -24 -28 -29
-3 -3 -3 -4 -5 -6 -6 -7 -11 -14 -18 -24 -19 -13 -12 -12 -14 -15 -15 -16 -16 -16 -19 -24 -27 -25 -23 -21 -18 -17 -16 -15 -16 -17 -18 -19 -19 -22 -24 -25 -25 -25 -25
-3 -4 -4 -5 -6 -7 -8 -10 -14 -17 -20 -16 -13 -12 -12 -13 -17 -29 -29 -31 -31 -28 -32 -33 -30 -24 -21 -18 -16 -14 -15 -15 -16 -19 -22 -24 -25 -26 -27 -26 -25 -24 -23
-5 -5 -6 -7 -8 -8 -9 -11 -12 -10 -11 -13 -14 -15 -15 -15 -19 -17 -17 -17 -17 -17 -20 -23 -27 -21 -16 -17 -16 -15 -15 -16 -19 -24 -25 -25 -25 -26 -27 -28 -27 -27 -26

GFSMW_850_dewp_138.txt.gz
Dewpoint
1 1 1 -0 -0 -1 -2 -1 0 0 0 -0 0 1 1 1 1 0 -0 -1 -2 -3 -3 -4 -4 -4 -3 -2 -2 -1 -1 -3 -3 -3 -4 -6 -7 -8 -6 1 5 7 10
2 2 1 1 1 -1 -2 -1 -0 -1 -1 -0 0 1 1 1 2 1 1 0 0 -0 -1 -1 -2 -3 -3 -5 -5 -5 -6 -6 -5 -5 -4 -3 -3 -7 -4 5 9 9 9
2 2 2 2 1 -2 -2 -2 -4 -5 -4 -2 -1 0 1 1 2 1 -0 -0 -0 -0 0 0 0 0 0 1 1 -0 -2 -3 -2 -1 2 4 4 2 4 6 2 4 6
2 2 2 1 -0 -2 -3 -6 -8 -10 -11 -9 -7 -5 -4 -4 -5 -5 -5 -4 -4 -3 -3 -2 -1 -1 -0 -0 0 1 1 0 0 -0 3 3 3 3 1 -4 -1 2 2
2 2 2 1 -1 -1 -4 -6 -9 -11 -12 -12 -11 -10 -8 -7 -5 -5 -5 -5 -4 -4 -4 -3 -3 -2 -2 -1 -0 0 1 1 0 1 1 2 2 3 3 4 2 -0 -3
2 2 1 0 -1 -1 -3 -7 -9 -10 -11 -10 -9 -8 -7 -6 -6 -5 -5 -4 -3 -3 -3 -3 -2 -2 -2 -1 -1 -1 -1 -1 -1 -1 -1 0 1 2 2 2 2 2 1
1 1 1 -0 -0 -1 -3 -8 -8 -8 -9 -8 -7 -6 -6 -5 -4 -3 -3 -3 -2 -2 -2 -2 -2 -2 -2 -3 -3 -3 -2 -2 -2 -1 -1 -1 -0 0 1 1 1 1 1
1 1 1 -0 -0 -1 -4 -6 -6 -7 -8 -7 -6 -5 -5 -4 -3 -3 -3 -2 -2 -3 -3 -3 -3 -3 -3 -3 -3 -2 -2 -2 -2 -2 -1 -1 -1 -0 0 0 -0 -0 0
1 1 0 0 -0 -1 -4 -6 -6 -6 -6 -5 -5 -5 -4 -3 -3 -3 -3 -3 -3 -3 -3 -4 -3 -3 -3 -3 -5 -4 -4 -4 -4 -4 -3 -3 -3 -3 -1 -1 -2 -3 -2
1 0 1 0 -0 -1 -3 -6 -6 -5 -5 -4 -4 -3 -3 -4 -4 -4 -4 -4 -4 -4 -4 -5 -6 -4 -4 -5 -5 -5 -5 -5 -5 -5 -5 -5 -4 -5 -4 -3 -3 -3 -3
1 1 0 -0 -1 -2 -3 -6 -6 -5 -4 -3 -4 -4 -4 -5 -7 -7 -7 -7 -6 -5 -6 -9 -10 -5 -5 -4 -5 -6 -6 -6 -5 -5 -6 -6 -5 -5 -5 -4 -4 -4 -4
1 0 0 -0 -1 -2 -3 -5 -5 -5 -4 -4 -4 -4 -5 -6 -7 -8 -8 -9 -9 -10 -10 -12 -17 -7 -5 -6 -7 -8 -8 -8 -7 -12 -6 -5 -5 -5 -6 -5 -5 -4 -5
1 1 1 -0 -1 -1 -2 -4 -5 -4 -4 -4 -4 -5 -6 -7 -8 -9 -9 -11 -13 -14 -16 -19 -24 -13 -10 -11 -13 -15 -22 -22 -17 -23 -17 -9 -8 -7 -6 -7 -6 -5 -6
2 1 1 -0 -1 -1 -2 -4 -4 -4 -4 -4 -4 -5 -6 -7 -8 -10 -12 -14 -16 -17 -20 -27 -30 -20 -15 -15 -15 -18 -28 -29 -27 -27 -25 -24 -20 -14 -9 -8 -8 -8 -7
2 1 0 -1 -1 -2 -3 -4 -4 -4 -4 -4 -4 -5 -6 -8 -10 -12 -15 -18 -19 -20 -21 -33 -27 -21 -18 -21 -20 -22 -26 -33 -31 -30 -29 -28 -29 -26 -15 -11 -10 -11 -11
3 3 1 -1 -1 -2 -3 -4 -4 -4 -4 -4 -5 -6 -7 -10 -13 -17 -20 -21 -24 -24 -26 -33 -26 -19 -14 -12 -24 -20 -25 -28 -29 -29 -26 -27 -30 -28 -24 -22 -20 -15 -16
3 2 1 -1 -2 -3 -3 -4 -5 -4 -4 -5 -6 -7 -10 -14 -18 -21 -21 -23 -27 -29 -31 -30 -31 -24 -16 -14 -22 -22 -26 -29 -27 -26 -24 -23 -27 -30 -30 -26 -25 -25 -26
3 1 0 -1 -2 -2 -3 -4 -4 -5 -5 -6 -7 -10 -14 -20 -21 -21 -20 -23 -25 -29 -31 -31 -27 -29 -24 -23 -26 -26 -30 -29 -26 -23 -20 -19 -19 -32 -32 -30 -30 -30 -29
3 2 1 -0 -2 -3 -4 -4 -4 -5 -6 -7 -9 -13 -19 -22 -23 -19 -18 -19 -20 -21 -25 -29 -27 -26 -27 -31 -29 -26 -27 -27 -24 -19 -14 -15 -15 -17 -29 -33 -33 -32 -32
2 1 0 -1 -3 -3 -4 -4 -5 -5 -7 -7 -11 -19 -24 -25 -23 -17 -15 -14 -14 -16 -17 -25 -29 -27 -22 -22 -29 -24 -24 -25 -23 -20 -19 -14 -14 -15 -31 -34 -34 -34 -35
1 0 -1 -2 -3 -3 -4 -4 -4 -5 -6 -9 -20 -26 -26 -24 -19 -14 -12 -12 -12 -13 -14 -21 -30 -30 -26 -16 -16 -21 -23 -23 -22 -20 -19 -18 -17 -16 -31 -34 -34 -33 -34
-0 -1 -2 -3 -4 -4 -4 -4 -4 -5 -8 -16 -22 -24 -21 -18 -13 -12 -11 -11 -11 -12 -14 -21 -30 -29 -28 -19 -14 -15 -16 -20 -23 -22 -20 -22 -28 -30 -28 -34 -35 -35 -37
-2 -2 -3 -3 -4 -4 -3 -4 -5 -7 -10 -17 -20 -20 -15 -13 -12 -12 -11 -11 -11 -12 -16 -23 -26 -25 -22 -21 -18 -15 -17 -19 -21 -23 -24 -28 -30 -32 -33 -33 -34 -35 -36
-2 -3 -3 -3 -4 -3 -4 -4 -6 -8 -10 -17 -21 -15 -13 -12 -12 -11 -11 -11 -12 -14 -20 -25 -25 -22 -20 -17 -15 -16 -16 -19 -21 -23 -25 -28 -30 -32 -33 -34 -34 -34 -34
-3 -3 -3 -3 -3 -4 -5 -6 -7 -9 -17 -21 -17 -14 -13 -13 -13 -13 -13 -16 -17 -23 -30 -32 -26 -22 -22 -15 -14 -15 -17 -20 -22 -25 -30 -33 -34 -35 -34 -34 -34 -33 -33
-3 -3 -3 -3 -4 -5 -6 -6 -7 -13 -20 -20 -15 -14 -13 -14 -25 -29 -26 -21 -22 -24 -29 -29 -23 -18 -16 -15 -15 -16 -20 -27 -28 -31 -35 -34 -34 -34 -33 -33 -32 -32 -32

GFSMW_850_dewp_141.txt.gz
Dewpoint
2 2 1 -1 -3 -4 -4 -3 -3 -1 -0 -0 0 1 1 0 0 -0 -0 -1 -1 -1 -1 -2 -3 -4 -4 -4 -4 -3 -3 -3 -3 -3 -4 -3 -5 -6 -6 -6 -4 5 8
2 2 1 -0 -1 -2 -4 -3 -2 -2 -1 -0 -0 0 0 -0 -0 -1 -1 -2 -2 -2 -1 -0 0 -0 -0 -1 -1 -2 -4 -4 -4 -4 -4 -4 -3 1 3 5 8 10 10
2 2 2 1 1 -1 -3 -2 -4 -6 -5 -4 -3 -2 -1 -0 -0 -2 -5 -6 -6 -6 -6 -6 -5 -4 -3 -1 0 0 0 0 0 0 1 3 2 -1 2 7 7 8 8
2 2 2 2 1 -2 -3 -5 -10 -11 -11 -10 -8 -6 -5 -5 -7 -8 -8 -7 -7 -7 -6 -5 -5 -5 -4 -3 -3 -2 -0 0 1 1 2 2 2 2 -0 -2 1 3 3
2 2 2 2 1 -2 -4 -7 -10 -12 -13 -13 -12 -11 -10 -10 -8 -7 -6 -6 -6 -5 -5 -5 -4 -3 -3 -3 -2 -1 -1 -1 -0 -0 -0 1 1 1 2 2 2 -0 0
2 2 2 2 0 -1 -3 -6 -10 -11 -11 -11 -11 -10 -10 -9 -7 -6 -5 -4 -4 -3 -3 -2 -2 -2 -2 -2 -2 -2 -2 -2 -1 -1 -1 -1 -1 0 0 1 1 1 1
2 2 2 1 0 -1 -2 -5 -8 -10 -10 -10 -10 -9 -8 -7 -6 -5 -4 -3 -3 -3 -3 -3 -2 -2 -2 -2 -3 -3 -2 -2 -1 -1 -1 -1 -1 -1 -1 -1 -1 -0 -0
2 2 2 1 -0 -1 -2 -5 -8 -9 -9 -9 -9 -8 -7 -5 -5 -4 -3 -3 -3 -3 -3 -3 -3 -3 -3 -3 -3 -3 -3 -3 -3 -2 -2 -2 -2 -2 -2 -3 -3 -3 -1
2 2 1 1 0 -1 -2 -6 -8 -8 -8 -7 -7 -6 -6 -5 -4 -4 -4 -4 -3 -3 -4 -5 -4 -3 -3 -3 -4 -4 -5 -4 -4 -4 -4 -4 -3 -4 -4 -4 -4 -4 -3
2 2 1 1 0 -1 -2 -6 -7 -7 -7 -7 -7 -7 -5 -5 -5 -5 -5 -5 -5 -5 -6 -8 -8 -6 -4 -4 -4 -5 -5 -5 -5 -5 -5 -5 -5 -5 -6 -5 -4 -4 -4
1 1 1 0 -0 -1 -2 -5 -7 -6 -7 -7 -6 -6 -5 -6 -6 -7 -8 -8 -9 -10 -10 -12 -14 -9 -9 -7 -7 -7 -7 -7 -7 -7 -5 -5 -4 -5 -6 -6 -5 -5 -5
1 1 1 0 -0 -1 -2 -4 -6 -6 -6 -5 -5 -5 -5 -6 -7 -7 -8 -10 -12 -15 -18 -20 -20 -13 -12 -12 -16 -19 -22 -20 -17 -21 -12 -9 -7 -6 -6 -6 -6 -6 -7
1 1 1 0 -1 -1 -2 -3 -5 -5 -5 -5 -4 -5 -5 -6 -7 -8 -10 -13 -16 -19 -20 -25 -23 -18 -18 -17 -18 -23 -30 -28 -29 -28 -26 -24 -16 -13 -10 -9 -9 -7 -7
1 1 0 -0 -1 -1 -2 -2 -4 -5 -5 -4 -5 -5 -5 -6 -7 -9 -12 -16 -19 -20 -23 -29 -27 -22 -21 -20 -21 -26 -32 -33 -31 -29 -29 -30 -29 -25 -18 -14 -15 -15 -17
1 1 0 -0 -0 -1 -1 -2 -4 -4 -4 -4 -4 -4 -5 -6 -7 -11 -15 -20 -22 -22 -27 -32 -25 -22 -24 -24 -22 -24 -29 -32 -28 -25 -26 -30 -28 -23 -24 -22 -21 -26 -26
1 1 1 2 1 1 0 -2 -4 -4 -4 -4 -4 -5 -6 -7 -10 -15 -20 -23 -25 -25 -30 -32 -27 -24 -24 -26 -24 -25 -29 -29 -28 -26 -24 -29 -30 -28 -27 -26 -25 -27 -28
2 2 2 3 3 3 -0 -2 -3 -3 -4 -4 -4 -5 -6 -8 -14 -19 -24 -26 -27 -30 -32 -32 -31 -25 -23 -26 -27 -29 -28 -25 -25 -25 -23 -27 -32 -31 -29 -28 -29 -31 -30
2 2 3 3 2 1 -1 -1 -1 -2 -4 -4 -5 -6 -7 -12 -18 -22 -24 -24 -27 -30 -32 -33 -29 -28 -27 -26 -26 -27 -26 -23 -21 -20 -19 -22 -30 -33 -31 -32 -34 -34 -34
2 1 3 2 1 -0 -2 -0 -1 -3 -4 -5 -6 -7 -10 -16 -20 -22 -21 -22 -24 -25 -29 -30 -26 -24 -27 -25 -23 -22 -24 -23 -21 -16 -14 -17 -23 -31 -32 -33 -34 -35 -35
-0 2 3 2 1 -0 -0 -0 -3 -3 -5 -6 -7 -9 -16 -19 -22 -19 -19 -20 -17 -17 -22 -26 -24 -22 -18 -17 -19 -21 -23 -24 -23 -21 -19 -14 -15 -17 -34 -35 -35 -35 -35
1 3 2 1 -0 -1 -0 -3 -1 -4 -5 -5 -7 -11 -19 -23 -20 -19 -17 -17 -14 -15 -17 -26 -25 -20 -15 -14 -15 -19 -23 -24 -25 -25 -26 -24 -17 -20 -32 -36 -36 -35 -36
1 1 0 -0 -1 -1 -2 -2 -3 -5 -4 -5 -8 -19 -23 -21 -18 -16 -14 -13 -12 -13 -18 -28 -28 -23 -19 -14 -14 -15 -22 -23 -27 -29 -30 -33 -35 -35 -37 -36 -36 -36 -38
0 -0 -1 -1 -2 -3 -2 -1 -5 -4 -4 -7 -17 -22 -20 -18 -14 -13 -12 -12 -12 -13 -19 -26 -26 -24 -21 -20 -16 -18 -20 -22 -25 -29 -32 -34 -36 -36 -37 -37 -37 -38 -38
-1 -1 -1 -2 -3 -3 -2 -2 -3 -4 -5 -13 -20 -20 -19 -15 -13 -12 -12 -12 -13 -14 -20 -26 -24 -20 -17 -17 -17 -19 -21 -23 -27 -30 -33 -36 -37 -37 -37 -36 -37 -37 -36
-2 -2 -2 -3 -3 -4 -3 -3 -4 -5 -8 -16 -18 -17 -15 -13 -12 -11 -12 -12 -12 -14 -23 -26 -23 -19 -15 -14 -16 -21 -28 -30 -32 -32 -33 -34 -35 -36 -36 -36 -36 -35 -35
-3 -2 -3 -3 -3 -3 -4 -5 -5 -6 -7 -14 -17 -15 -14 -12 -12 -12 -12 -12 -14 -21 -27 -24 -20 -18 -14 -15 -15 -19 -32 -33 -32 -32 -35 -36 -36 -36 -35 -35 -35 -34 -34